Temperature
19 19 18 18 18 18 18 19 19 19 19 19 19 18 16 15 14 14 13 12 12 12 11 11 11 11 11 11 11 10 10 10 10 10 9 9 9 9 9 9 9 9 9 9
18 18 18 17 18 18 18 18 18 18 18 18 17 16 16 15 14 13 13 12 12 11 11 11 11 11 10 10 10 10 10 10 10 9 9 9 9 9 9 9 9 9 9 9
18 18 17 17 18 18 17 17 18 18 18 18 17 16 16 15 14 13 12 12 11 11 11 11 10 10 10 10 10 10 10 10 9 9 9 9 8 8 8 8 8 8 8 8
17 17 17 18 18 17 17 17 17 17 17 17 16 15 14 14 13 13 12 11 11 11 10 10 10 10 10 9 9 9 9 9 9 9 8 8 8 8 8 8 8 8 8 8
17 17 18 17 17 17 17 17 17 17 16 15 14 15 15 13 12 12 11 11 11 10 10 10 10 9 9 9 9 9 9 8 8 8 8 8 8 8 8 7 7 8 8 8
16 16 17 18 17 16 16 16 16 16 15 15 14 16 16 13 12 11 11 10 10 10 10 9 9 9 9 9 8 8 8 8 8 8 8 8 8 7 7 7 7 7 7 7
16 16 17 17 15 15 16 17 15 14 14 14 14 14 13 12 11 11 10 10 10 9 9 9 9 8 8 8 8 8 8 8 8 8 7 7 7 7 7 7 7 7 6 7
16 16 16 15 15 15 16 15 14 14 13 13 12 12 11 11 10 10 10 10 9 9 9 9 8 8 8 8 8 7 7 7 7 7 7 7 7 7 7 6 6 6 6 6
16 16 15 14 14 14 13 13 13 13 12 12 11 11 10 10 10 9 9 9 9 8 8 8 8 8 8 7 7 7 7 7 7 7 7 7 6 6 6 6 6 6 6 6
15 15 14 13 12 12 12 12 12 12 11 11 11 10 10 9 9 9 9 8 8 8 8 8 7 7 7 7 7 7 6 6 6 6 6 6 6 6 6 6 6 6 6 6
14 14 13 12 12 11 11 11 11 11 11 10 10 10 9 9 9 8 8 8 8 7 7 7 7 7 7 7 6 6 6 6 6 6 6 6 6 6 6 6 5 5 5 5
14 14 13 12 11 11 11 10 10 10 10 10 9 9 9 8 8 8 8 7 7 7 7 7 6 6 6 6 6 6 6 5 5 5 5 5 5 5 5 5 5 5 5 5
12 11 11 11 10 10 10 10 10 10 9 9 9 9 8 8 8 7 7 7 7 6 6 6 6 6 6 6 6 5 5 5 5 5 5 5 5 5 5 5 5 4 4 5
10 10 10 10 10 9 9 9 9 9 9 8 8 8 8 8 7 7 7 7 6 6 6 6 6 5 5 5 5 5 5 5 4 4 4 4 4 4 4 4 4 4 4 4
9 9 9 9 9 9 9 9 9 8 8 8 8 8 7 7 7 7 6 6 6 6 5 5 5 5 5 5 5 5 4 4 4 4 4 4 4 4 3 3 3 3 3 3
9 9 9 9 9 8 8 8 8 8 8 7 7 7 7 7 6 6 6 6 5 5 5 5 5 5 5 5 4 4 4 4 4 4 4 3 3 3 3 3 3 3 3 3
8 8 8 8 8 8 8 8 8 7 7 7 7 7 6 6 6 6 6 5 5 5 5 5 4 4 4 4 4 4 4 4 4 3 3 3 3 3 3 3 3 3 2 3
8 8 8 8 8 8 7 7 7 7 7 6 6 6 6 6 6 5 5 5 5 4 4 4 4 4 4 4 4 4 3 3 3 3 3 3 3 2 2 2 2 2 2 2
7 7 7 7 7 7 7 7 6 6 6 6 6 6 5 5 5 5 5 4 4 4 4 4 4 4 4 4 3 3 3 3 3 3 2 2 2 2 2 2 2 2 2 2
7 7 7 7 7 7 7 6 6 6 6 6 5 5 5 5 5 5 4 4 4 4 4 4 3 3 3 3 3 3 3 3 2 2 2 2 2 2 2 2 2 2 2 2
7 7 7 7 6 6 6 6 6 5 5 5 5 5 5 5 4 4 4 3 3 3 3 3 3 3 3 3 3 2 2 2 2 2 2 2 2 1 1 1 1 1 1 1
6 6 6 6 6 6 6 5 5 5 5 5 5 5 4 4 4 4 3 3 3 3 3 3 2 3 3 2 2 2 2 2 2 2 1 1 1 1 1 1 1 1 1 1
6 6 6 6 5 5 5 5 5 5 5 5 4 4 4 4 3 3 3 3 3 3 2 2 2 2 2 2 2 2 1 1 1 1 1 1 1 1 1 1 0 0 0 1
6 6 5 5 5 5 5 5 5 4 4 4 4 4 3 3 3 3 3 3 3 2 2 2 2 2 2 2 1 1 1 1 1 1 1 0 0 0 0 0 0 0 0 0
5 5 5 5 5 5 4 4 4 4 4 4 4 3 3 3 3 2 2 2 2 2 2 2 2 2 1 1 1 1 1 0 0 0 0 0 0 0 0 -0 -0 -0 0 0
5 5 5 4 4 4 4 4 4 4 3 3 3 3 3 2 2 2 2 2 2 2 2 1 1 1 1 1 1 0 0 0 0 -0 -0 -0 -0 -0 -0 -0 -0 -0 -0 -0
4 4 4 4 4 4 4 3 3 3 3 3 3 2 2 2 2 2 2 1 1 1 1 1 1 1 0 0 0 -0 -0 -0 -0 -0 -0 -0 -0 -0 -0 -0 -0 -0 -0 -0
Wind_Speed
6 5 5 6 7 7 9 9 9 7 7 6 4 3 2 1 1 1 1 1 1 1 0 0 0 0 0 1 1 2 3 3 3 3 3 3 3 3 3 3 3 3 4 4
6 5 6 7 8 9 10 10 10 10 9 5 4 3 2 1 1 2 2 2 1 1 1 1 1 1 1 1 1 2 3 3 3 3 3 3 3 4 3 3 4 4 4 5
6 5 6 8 7 8 7 7 8 9 7 4 3 3 3 2 2 2 2 2 2 2 2 2 2 1 2 2 1 2 2 3 3 4 4 4 4 4 4 5 5 5 5 5
5 6 7 2 1 4 6 6 6 6 5 4 4 4 3 2 2 2 2 3 3 2 2 2 1 1 2 2 2 2 3 3 3 4 5 5 5 5 5 5 5 5 5 6
4 6 7 4 2 4 6 6 5 5 4 3 3 3 2 1 2 3 3 3 3 3 3 2 1 1 2 2 2 3 3 4 4 4 5 5 6 6 6 6 6 6 6 6
5 6 6 2 1 2 5 6 2 3 3 3 3 4 3 2 2 2 2 2 2 2 2 2 1 1 2 2 3 3 4 4 4 4 5 5 6 6 6 6 6 6 6 7
8 8 6 1 1 3 5 3 1 2 3 3 4 4 4 3 3 2 2 2 1 1 2 2 2 2 3 3 3 4 4 4 4 4 4 5 5 5 5 5 6 6 7 7
7 8 5 2 4 4 2 2 0 1 2 3 3 3 2 2 2 2 2 1 1 1 2 2 2 3 3 3 3 3 3 3 3 3 3 3 4 4 4 5 5 6 6 6
6 5 2 3 3 2 2 2 2 3 3 3 3 3 2 2 2 2 2 1 1 2 2 1 2 3 3 3 3 2 3 3 3 3 3 3 3 3 3 4 4 5 5 5
7 6 5 4 4 4 4 4 3 3 2 3 3 3 2 2 2 2 2 1 1 2 2 2 2 2 3 3 2 3 3 3 3 3 3 3 3 3 3 4 4 4 5 5
9 7 5 5 5 5 4 3 3 2 2 3 2 2 2 2 2 2 2 1 2 2 2 2 2 2 2 2 2 3 4 3 3 3 3 3 3 3 4 4 4 5 5 5
7 6 5 5 4 4 4 4 3 3 2 2 2 2 2 2 1 1 1 1 1 2 2 2 2 2 2 2 3 4 4 4 3 3 3 3 3 3 3 4 4 5 6 6
6 4 4 4 3 3 3 3 3 3 3 2 2 1 1 1 1 1 1 1 1 2 3 2 2 2 2 2 3 4 4 4 3 3 3 3 3 4 4 3 4 4 4 5
4 3 4 4 3 3 3 3 2 2 2 1 1 1 1 1 1 1 1 2 2 2 2 2 2 3 3 3 3 4 4 4 4 3 3 3 4 4 4 4 4 4 4 5
5 5 5 4 3 3 3 3 3 3 2 2 2 2 2 2 2 2 2 2 2 2 2 2 3 3 3 3 4 4 4 3 4 4 3 3 4 4 4 5 5 5 5 4
5 4 4 4 4 4 4 4 4 4 3 3 2 2 3 3 2 2 1 1 2 3 3 3 4 4 3 3 4 4 4 4 4 4 4 3 4 4 4 5 5 5 5 5
5 5 5 6 6 5 5 5 5 4 4 3 3 3 2 2 2 2 2 2 3 4 4 4 4 4 4 4 4 4 4 3 3 4 4 4 4 4 5 5 4 5 5 4
6 6 6 6 6 5 4 4 4 4 4 3 3 3 3 3 3 3 3 3 4 4 4 4 4 4 4 4 4 4 4 4 3 4 4 4 4 4 4 4 5 5 5 4
4 4 4 4 4 4 4 4 4 4 3 3 3 3 3 4 3 3 3 4 4 5 4 4 4 5 5 4 4 4 4 4 4 4 4 4 4 4 4 5 5 5 5 4
2 2 2 2 2 3 3 3 3 3 3 3 3 3 3 3 3 3 4 4 4 4 5 5 5 5 5 4 4 4 4 4 4 4 4 4 4 4 4 5 5 5 5 5
2 2 2 1 2 2 3 3 3 4 4 4 4 4 4 4 3 4 4 5 4 4 5 5 5 4 4 4 4 4 4 4 4 4 4 4 4 5 5 5 5 5 5 5
2 2 2 1 2 2 2 3 3 4 4 4 4 4 4 4 4 4 5 5 4 4 4 4 4 4 4 4 3 4 4 4 4 4 4 4 4 4 5 5 5 5 5 5
1 2 2 2 2 3 3 3 3 4 4 4 4 4 4 4 4 4 5 4 4 4 5 4 5 5 5 4 4 3 4 4 4 4 4 4 4 4 5 5 5 5 5 5
2 2 2 2 2 3 3 3 3 3 3 4 4 4 4 4 4 4 4 4 4 5 5 4 5 5 5 4 3 4 4 4 4 4 4 4 4 4 5 5 5 5 5 6
2 2 2 3 3 3 4 3 3 3 3 3 3 3 3 3 4 4 4 5 5 5 5 4 4 4 4 3 3 4 4 4 4 4 4 4 4 4 4 4 5 5 5 5
2 3 3 3 3 3 3 3 3 3 3 3 3 3 3 3 4 4 4 4 5 4 4 3 3 3 3 3 3 4 4 4 4 4 4 4 5 5 5 5 6 5 5 5
2 2 2 2 2 2 2 3 3 3 3 3 3 3 3 3 3 4 4 4 3 3 3 3 3 3 3 3 3 4 4 4 4 4 4 4 4 5 5 6 5 5 5 5
Wind_Direction
264 271 258 254 253 239 239 251 260 263 267 281 298 306 308 282 229 217 212 248 254 221 228 212 213 298 293 288 253 222 218 227 234 240 237 235 241 237 237 241 243 238 231 226
249 246 253 260 255 244 244 250 252 258 267 281 294 293 293 273 242 248 260 264 264 258 252 246 251 266 271 289 292 242 226 232 243 248 242 235 239 241 239 243 245 239 232 227
249 244 256 252 249 238 233 237 247 254 267 274 269 277 281 270 250 264 266 260 261 259 252 250 255 257 260 272 275 267 257 248 245 245 247 243 241 240 238 239 241 240 238 236
254 244 243 236 125 226 227 239 244 253 268 277 286 288 281 267 275 273 265 265 265 265 262 264 259 264 269 265 263 267 272 270 264 253 250 252 248 242 241 244 242 243 245 244
243 249 255 246 236 235 236 248 245 245 257 275 297 278 246 278 292 282 268 264 263 264 263 256 248 254 254 254 268 271 272 274 272 263 256 251 250 247 244 242 244 244 244 242
236 250 252 266 143 227 234 239 217 244 257 255 263 272 299 322 303 301 302 283 279 274 265 249 250 251 248 255 266 276 279 280 280 272 263 258 257 257 252 250 249 251 249 244
237 247 256 323 137 190 227 283 145 245 257 242 253 296 324 324 316 316 311 300 292 264 252 247 238 241 252 264 274 283 285 287 289 282 274 270 269 264 258 252 253 254 254 250
227 236 245 125 165 208 284 29 72 250 250 249 264 296 316 321 320 320 321 314 289 269 266 248 236 246 260 270 285 290 289 289 289 291 291 282 275 271 262 254 252 256 256 253
232 248 341 180 218 274 312 276 267 260 253 241 252 271 296 304 314 317 311 300 287 278 271 252 241 252 265 278 289 287 287 290 292 297 294 286 275 270 268 264 258 256 255 254
249 254 264 247 249 264 273 274 269 258 240 230 248 265 285 299 308 316 314 305 292 278 271 264 258 266 280 288 280 276 282 289 294 294 293 289 286 279 276 274 272 270 266 265
252 262 266 252 257 262 263 261 256 251 241 241 249 259 279 290 303 309 304 296 278 272 271 275 268 281 292 288 279 278 283 286 289 291 291 291 290 288 277 279 283 280 274 274
257 256 257 261 259 263 255 255 253 252 258 254 245 252 270 288 300 307 302 291 285 288 288 283 270 282 288 286 281 279 282 285 287 285 283 283 286 295 298 280 293 290 293 287
273 280 276 267 255 245 251 257 251 254 255 260 259 245 243 268 291 290 289 297 296 288 284 275 270 278 288 285 280 278 279 281 283 283 283 284 285 288 298 292 266 267 280 289
259 261 262 252 252 249 250 249 248 255 255 248 242 228 229 250 267 271 279 284 286 287 287 280 281 290 296 288 279 280 283 281 280 280 279 278 284 290 290 294 297 296 281 271
252 261 258 256 246 248 243 233 235 238 234 233 232 232 236 249 264 283 290 287 285 291 297 296 294 298 301 292 283 280 280 282 282 283 282 280 282 285 286 288 290 296 302 295
250 258 251 244 243 242 233 230 233 234 228 228 235 242 247 251 264 283 294 289 280 285 292 292 293 297 294 288 284 278 279 290 288 281 278 278 280 285 287 287 287 288 292 300
233 244 249 249 250 248 241 238 237 233 229 230 235 239 242 249 263 276 287 288 284 284 286 287 292 299 291 283 280 279 282 281 273 277 278 276 277 278 281 280 281 284 287 299
245 248 249 249 245 242 240 240 233 231 230 231 227 231 237 245 258 271 279 283 287 289 294 298 302 300 289 280 278 279 279 280 277 279 282 283 281 278 276 275 279 284 292 293
255 256 256 251 245 236 233 232 230 230 229 218 221 238 249 255 262 268 272 274 278 285 301 310 309 293 287 285 284 272 274 275 278 282 284 287 281 277 272 273 278 283 289 292
257 250 244 241 240 238 238 235 229 222 219 218 227 239 251 262 267 266 267 271 276 289 300 304 297 292 288 281 277 273 273 274 280 285 287 284 281 281 281 278 280 284 285 285
251 247 248 244 252 253 245 235 225 226 226 222 230 243 256 266 267 265 267 276 283 294 298 296 291 290 288 286 269 274 277 279 279 282 283 283 284 286 287 288 289 287 286 285
263 258 258 260 266 266 252 238 231 233 234 232 236 244 253 260 264 269 270 275 285 294 293 286 288 293 294 288 276 278 277 277 278 281 283 283 285 287 288 292 292 291 289 287
260 263 260 265 273 278 269 250 239 236 236 238 241 245 250 258 259 265 275 279 283 289 288 283 296 296 289 283 281 277 276 278 280 281 281 283 285 286 287 289 291 290 289 289
263 274 274 277 276 270 269 267 256 246 245 250 250 253 257 261 268 270 278 285 282 281 281 284 285 284 280 277 276 276 278 281 282 280 282 284 284 284 285 288 288 288 287 287
257 263 265 270 266 262 264 266 266 259 256 263 270 270 268 265 267 278 283 280 277 274 279 276 268 278 277 277 278 281 282 282 282 284 285 285 284 282 283 284 286 286 287 286
256 261 263 264 264 262 260 255 256 260 261 270 280 282 281 280 279 281 281 280 279 275 279 282 276 278 282 279 279 282 283 282 279 280 281 280 281 281 281 281 283 282 284 285
262 269 275 282 282 272 264 258 259 263 264 266 276 283 286 288 287 285 283 281 279 278 280 283 284 284 288 283 278 280 281 282 281 282 283 282 283 284 283 283 284 284 285 285
Height
1510 1510 1512 1513 1513 1513 1512 1509 1509 1507 1508 1507 1508 1511 1513 1514 1515 1516 1516 1516 1516 1516 1517 1517 1517 1517 1517 1517 1517 1517 1517 1517 1517 1517 1517 1516 1516 1516 1516 1516 1516 1516 1516 1517
1512 1511 1512 1512 1510 1510 1510 1509 1508 1508 1508 1507 1510 1511 1512 1512 1513 1514 1514 1514 1514 1514 1515 1515 1515 1514 1514 1514 1514 1515 1515 1515 1514 1514 1514 1513 1513 1513 1513 1513 1513 1513 1514 1514
1509 1509 1512 1510 1506 1506 1507 1507 1507 1506 1506 1507 1509 1510 1511 1511 1511 1512 1512 1512 1512 1512 1513 1512 1513 1512 1512 1512 1512 1512 1512 1512 1512 1511 1511 1511 1510 1510 1510 1510 1510 1510 1510 1511
1510 1510 1514 1504 1503 1504 1505 1505 1505 1505 1506 1508 1509 1509 1510 1510 1510 1511 1511 1511 1510 1510 1510 1510 1510 1510 1511 1510 1510 1510 1509 1509 1509 1509 1508 1508 1507 1507 1506 1506 1506 1506 1507 1507
1510 1508 1503 1502 1503 1504 1504 1503 1504 1504 1506 1507 1508 1508 1508 1509 1509 1509 1509 1509 1508 1508 1508 1508 1508 1508 1508 1508 1508 1507 1507 1506 1506 1506 1505 1505 1504 1503 1503 1503 1503 1502 1503 1503
1509 1510 1504 1500 1501 1503 1505 1502 1502 1503 1504 1506 1507 1504 1505 1507 1507 1507 1507 1506 1506 1505 1506 1505 1506 1506 1506 1506 1505 1505 1504 1504 1503 1502 1502 1501 1501 1500 1499 1499 1499 1499 1498 1499
1506 1506 1499 1500 1502 1504 1506 1500 1502 1503 1504 1505 1505 1505 1506 1505 1505 1504 1504 1504 1503 1503 1503 1503 1503 1503 1503 1503 1503 1502 1502 1501 1500 1499 1498 1498 1497 1496 1496 1495 1495 1494 1494 1494
1504 1504 1502 1501 1502 1502 1500 1501 1501 1502 1503 1504 1504 1504 1504 1504 1503 1502 1502 1501 1501 1501 1501 1501 1500 1501 1501 1501 1500 1499 1498 1498 1497 1496 1495 1494 1493 1492 1492 1491 1491 1491 1490 1490
1500 1499 1499 1500 1500 1501 1501 1501 1501 1501 1502 1502 1502 1502 1502 1502 1501 1501 1500 1499 1499 1499 1498 1498 1498 1498 1498 1498 1497 1496 1495 1495 1494 1493 1492 1491 1490 1489 1489 1488 1487 1487 1487 1486
1498 1497 1499 1500 1500 1500 1500 1500 1500 1500 1500 1500 1500 1500 1500 1500 1499 1499 1498 1497 1497 1497 1496 1496 1495 1495 1495 1495 1494 1494 1493 1492 1491 1490 1489 1488 1487 1486 1485 1485 1484 1483 1483 1482
1495 1496 1497 1497 1498 1498 1498 1498 1498 1498 1498 1498 1498 1498 1498 1498 1497 1496 1496 1495 1495 1495 1494 1494 1493 1493 1493 1492 1492 1491 1490 1489 1488 1487 1486 1485 1484 1483 1482 1481 1480 1480 1479 1479
1492 1493 1494 1495 1496 1496 1496 1496 1496 1496 1496 1496 1496 1496 1496 1496 1495 1495 1494 1494 1493 1493 1492 1492 1491 1491 1490 1490 1489 1488 1487 1486 1485 1484 1483 1482 1480 1479 1478 1477 1476 1475 1474 1474
1493 1492 1493 1493 1494 1494 1494 1494 1494 1494 1494 1494 1494 1494 1494 1494 1493 1493 1492 1492 1491 1491 1490 1490 1489 1488 1488 1487 1486 1485 1484 1483 1482 1481 1480 1478 1477 1476 1475 1474 1472 1471 1470 1469
1491 1491 1491 1491 1491 1492 1492 1492 1492 1492 1492 1492 1492 1492 1492 1492 1491 1491 1490 1490 1489 1489 1488 1488 1487 1486 1485 1484 1483 1482 1481 1480 1479 1478 1476 1475 1474 1473 1472 1470 1469 1467 1466 1465
1488 1489 1489 1489 1489 1489 1489 1489 1490 1490 1490 1490 1490 1489 1489 1489 1489 1488 1488 1487 1487 1486 1486 1485 1484 1483 1482 1481 1480 1479 1478 1477 1476 1475 1473 1472 1471 1470 1468 1467 1466 1465 1463 1462
1485 1485 1485 1486 1486 1486 1486 1486 1487 1487 1487 1487 1487 1487 1487 1487 1487 1486 1486 1485 1485 1484 1483 1482 1481 1480 1480 1478 1477 1476 1475 1474 1473 1471 1470 1469 1468 1466 1465 1464 1463 1461 1460 1459
1482 1482 1482 1482 1482 1482 1483 1483 1484 1484 1484 1484 1484 1484 1484 1484 1484 1483 1483 1483 1482 1481 1480 1480 1478 1477 1476 1475 1474 1473 1472 1471 1469 1468 1466 1465 1464 1463 1462 1461 1460 1458 1457 1455
1480 1480 1480 1480 1480 1480 1480 1480 1481 1481 1481 1481 1482 1482 1482 1481 1481 1480 1480 1480 1479 1478 1478 1476 1475 1474 1473 1472 1471 1470 1469 1468 1466 1465 1463 1462 1461 1460 1459 1458 1456 1455 1453 1452
1476 1477 1477 1477 1477 1477 1477 1477 1478 1478 1478 1479 1479 1479 1479 1479 1478 1478 1477 1476 1476 1475 1474 1473 1472 1471 1470 1469 1468 1467 1466 1464 1463 1462 1460 1459 1458 1456 1455 1454 1453 1451 1450 1448
1474 1474 1474 1474 1475 1475 1474 1474 1475 1475 1475 1476 1476 1476 1476 1476 1475 1475 1474 1473 1473 1472 1471 1470 1468 1467 1466 1465 1465 1464 1462 1461 1460 1458 1457 1456 1454 1453 1452 1450 1449 1448 1446 1445
1471 1472 1472 1472 1472 1472 1472 1472 1472 1472 1472 1473 1473 1473 1473 1472 1472 1471 1470 1470 1469 1468 1467 1466 1465 1464 1463 1462 1461 1460 1459 1458 1456 1455 1454 1452 1451 1450 1448 1447 1445 1444 1443 1441
1470 1470 1470 1469 1469 1469 1469 1469 1469 1469 1469 1469 1470 1470 1469 1469 1468 1468 1467 1466 1465 1464 1463 1462 1461 1460 1459 1458 1457 1457 1455 1454 1453 1452 1451 1449 1448 1446 1445 1443 1442 1440 1439 1437
1468 1468 1468 1467 1467 1467 1466 1466 1466 1466 1466 1466 1466 1466 1466 1465 1465 1464 1463 1463 1461 1460 1459 1458 1457 1457 1456 1455 1454 1453 1452 1450 1449 1448 1447 1446 1444 1443 1441 1440 1438 1437 1435 1434
1466 1466 1466 1465 1465 1464 1464 1464 1464 1463 1463 1463 1463 1463 1462 1462 1461 1460 1459 1458 1457 1456 1455 1454 1453 1453 1452 1451 1450 1449 1448 1447 1446 1444 1443 1442 1441 1439 1438 1436 1435 1433 1432 1430
1463 1463 1463 1463 1462 1462 1461 1461 1461 1461 1460 1460 1460 1459 1459 1458 1457 1456 1455 1454 1452 1451 1451 1450 1449 1448 1448 1447 1446 1445 1444 1443 1442 1441 1440 1438 1437 1436 1434 1433 1431 1430 1428 1427
1461 1461 1460 1460 1460 1459 1459 1458 1458 1458 1457 1457 1456 1455 1455 1454 1453 1452 1451 1449 1448 1448 1447 1446 1445 1445 1444 1443 1442 1441 1440 1439 1439 1437 1436 1435 1433 1432 1431 1429 1428 1426 1425 1423
1458 1458 1457 1457 1456 1456 1456 1455 1455 1455 1454 1453 1452 1452 1451 1450 1449 1448 1446 1445 1445 1444 1444 1443 1442 1441 1441 1440 1439 1438 1437 1436 1435 1434 1433 1432 1430 1429 1427 1425 1424 1422 1421 1419